Starlink 35411

operational
NORAD ID: 66560 Int'l Des: 2025-268 Owner: SPXS Country: US Constellation: starlink
LEOCIRCULAR

About Starlink 35411

Description loading...

Live Position

Loading 3D Globe...

Upcoming Passes

Altitude History

Altitude vs Time

uPlot chart will show altitude changes over time

Two-Line Element Set

1 66560U 25268D 26062.24562870 .00049248 00000-0 17836-2 0 9990
2 66560 42.9995 23.5020 0001269 244.8623 115.2097 15.27647227 16973
Epoch: Mar 3, 2026 • Age: 22 hours

Current Status

Altitude 486.3 km
Velocity 7.63 km/s
Sub-Earth Point 41.57°N, 39.66°W
Launch Date Nov 21, 2025
Age 0.2 years
Type internet

Technical Details

Classification Payload
Mass 575.00 kg
Dry Mass 530.00 kg
Total Mass 575.00 kg
Length 0.30 m
Diameter 4.10 m
Span 29.00 m
Shape Box + pan
Manufacturer SPXS
Bus Type Starlink V2MO
Phase Status In Orbit
Owner/State SPXS/US

Large Constellations

Loading constellations...